Time,TemperatureF,DewpointF,PressureIn,WindDirection,WindDirectionDegrees,WindSpeedMPH,WindSpeedGustMPH,Humidity,HourlyPrecipIn,Conditions,Clouds,dailyrainin,SolarRadiationWatts/m^2,SoftwareType,DateUTC
2013-07-18 00:03:00,64.7,55.5,29.98,East,90,0.0,0.0,72,0.00,,,0.00,0,WeatherTracker,2013-07-18 07:03:00,
2013-07-18 00:08:00,64.5,55.3,29.98,East,90,0.0,0.0,72,0.00,,,0.00,0,WeatherTracker,2013-07-18 07:08:00,
2013-07-18 00:13:00,64.3,55.5,29.98,East,90,0.0,0.0,73,0.00,,,0.00,0,WeatherTracker,2013-07-18 07:13:00,
2013-07-18 00:18:00,64.2,55.4,29.98,East,89,0.0,0.0,73,0.00,,,0.00,0,WeatherTracker,2013-07-18 07:18:00,
2013-07-18 00:23:00,64.1,55.3,29.98,East,88,4.0,4.0,73,0.00,,,0.00,0,WeatherTracker,2013-07-18 07:23:00,
2013-07-18 00:28:00,63.8,55.0,29.99,ENE,67,1.0,7.0,73,0.00,,,0.00,0,WeatherTracker,2013-07-18 07:28:00,
2013-07-18 00:33:00,63.6,55.2,29.99,ENE,69,0.0,8.0,74,0.00,,,0.00,0,WeatherTracker,2013-07-18 07:33:00,
2013-07-18 00:38:00,63.3,54.9,29.99,ENE,74,4.0,8.0,74,0.00,,,0.00,0,WeatherTracker,2013-07-18 07:38:00,
2013-07-18 00:43:00,63.0,55.3,29.99,ENE,74,5.0,7.0,76,0.00,,,0.00,0,WeatherTracker,2013-07-18 07:43:00,
2013-07-18 00:48:00,62.5,55.2,29.99,ENE,76,2.0,7.0,77,0.00,,,0.00,0,WeatherTracker,2013-07-18 07:48:00,
2013-07-18 00:54:00,61.9,55.0,29.99,ENE,78,4.0,7.0,78,0.00,,,0.00,0,WeatherTracker,2013-07-18 07:54:00,
2013-07-18 00:59:00,61.5,54.6,29.99,ENE,75,4.0,7.0,78,0.00,,,0.00,0,WeatherTracker,2013-07-18 07:59:00,
2013-07-18 01:04:00,61.2,54.6,29.98,ENE,77,5.0,7.0,79,0.00,,,0.00,0,WeatherTracker,2013-07-18 08:04:00,
2013-07-18 01:09:00,61.0,54.8,29.98,ENE,77,0.0,6.0,80,0.00,,,0.00,0,WeatherTracker,2013-07-18 08:09:00,
2013-07-18 01:14:00,60.9,54.7,29.98,ENE,78,0.0,6.0,80,0.00,,,0.00,0,WeatherTracker,2013-07-18 08:14:00,
2013-07-18 01:19:00,60.5,54.3,29.99,East,81,3.0,5.0,80,0.00,,,0.00,0,WeatherTracker,2013-07-18 08:19:00,
2013-07-18 01:24:00,60.2,54.0,29.99,East,81,2.0,6.0,80,0.00,,,0.00,0,WeatherTracker,2013-07-18 08:24:00,
2013-07-18 01:29:00,60.0,53.8,29.99,East,84,4.0,6.0,80,0.00,,,0.00,0,WeatherTracker,2013-07-18 08:29:00,
2013-07-18 01:34:00,59.8,53.6,29.99,East,87,3.0,6.0,80,0.00,,,0.00,0,WeatherTracker,2013-07-18 08:34:00,
2013-07-18 01:39:00,59.6,53.4,29.99,East,88,1.0,6.0,80,0.00,,,0.00,0,WeatherTracker,2013-07-18 08:39:00,
2013-07-18 01:44:00,59.4,53.2,29.99,East,89,2.0,6.0,80,0.00,,,0.00,0,WeatherTracker,2013-07-18 08:44:00,
2013-07-18 01:49:00,59.1,53.3,29.99,East,90,0.0,6.0,81,0.00,,,0.00,0,WeatherTracker,2013-07-18 08:49:00,
2013-07-18 01:54:00,59.0,53.2,29.98,East,90,0.0,5.0,81,0.00,,,0.00,0,WeatherTracker,2013-07-18 08:54:00,
2013-07-18 02:00:00,59.0,53.2,29.98,East,90,0.0,0.0,81,0.00,,,0.00,0,WeatherTracker,2013-07-18 09:00:00,
2013-07-18 02:05:00,59.0,53.2,29.98,East,90,0.0,0.0,81,0.00,,,0.00,0,WeatherTracker,2013-07-18 09:05:00,
2013-07-18 02:10:00,59.0,53.2,29.98,East,88,1.0,5.0,81,0.00,,,0.00,0,WeatherTracker,2013-07-18 09:10:00,
2013-07-18 02:15:00,59.0,53.2,29.98,East,84,4.0,6.0,81,0.00,,,0.00,0,WeatherTracker,2013-07-18 09:15:00,
2013-07-18 02:20:00,59.0,53.2,29.98,East,80,3.0,6.0,81,0.00,,,0.00,0,WeatherTracker,2013-07-18 09:20:00,
2013-07-18 02:25:00,58.6,53.1,29.99,East,79,3.0,7.0,82,0.00,,,0.00,0,WeatherTracker,2013-07-18 09:25:00,
2013-07-18 02:30:00,58.4,52.9,29.99,East,82,2.0,7.0,82,0.00,,,0.00,0,WeatherTracker,2013-07-18 09:30:00,
2013-07-18 02:35:00,58.3,53.2,29.98,East,82,4.0,5.0,83,0.00,,,0.00,0,WeatherTracker,2013-07-18 09:35:00,
2013-07-18 02:40:00,58.1,53.0,29.98,East,94,6.0,7.0,83,0.00,,,0.00,0,WeatherTracker,2013-07-18 09:40:00,
2013-07-18 02:45:00,57.8,52.7,29.98,East,92,5.0,7.0,83,0.00,,,0.00,0,WeatherTracker,2013-07-18 09:45:00,
2013-07-18 02:50:00,57.5,52.7,29.98,ESE,103,5.0,9.0,84,0.00,,,0.00,0,WeatherTracker,2013-07-18 09:50:00,
2013-07-18 02:55:00,57.3,52.5,29.98,ESE,104,0.0,9.0,84,0.00,,,0.00,0,WeatherTracker,2013-07-18 09:55:00,
2013-07-18 03:00:00,57.3,52.5,29.98,ESE,105,6.0,7.0,84,0.00,,,0.00,0,WeatherTracker,2013-07-18 10:00:00,
2013-07-18 03:06:00,57.2,52.4,29.98,ESE,105,0.0,7.0,84,0.00,,,0.00,0,WeatherTracker,2013-07-18 10:06:00,
2013-07-18 03:11:00,57.1,52.3,29.98,ESE,105,0.0,7.0,84,0.00,,,0.00,0,WeatherTracker,2013-07-18 10:11:00,
2013-07-18 03:16:00,57.0,52.2,29.98,ESE,106,0.0,0.0,84,0.00,,,0.00,0,WeatherTracker,2013-07-18 10:16:00,
2013-07-18 03:21:00,56.9,52.4,29.98,ESE,106,0.0,5.0,85,0.00,,,0.00,0,WeatherTracker,2013-07-18 10:21:00,
2013-07-18 03:26:00,56.8,52.3,29.98,ESE,106,0.0,5.0,85,0.00,,,0.00,0,WeatherTracker,2013-07-18 10:26:00,
2013-07-18 03:31:00,56.7,52.2,29.98,ESE,106,0.0,4.0,85,0.00,,,0.00,0,WeatherTracker,2013-07-18 10:31:00,
2013-07-18 03:36:00,56.5,52.0,29.98,ESE,106,0.0,0.0,85,0.00,,,0.00,0,WeatherTracker,2013-07-18 10:36:00,
2013-07-18 03:41:00,56.4,51.9,29.97,ESE,106,0.0,0.0,85,0.00,,,0.00,0,WeatherTracker,2013-07-18 10:41:00,
2013-07-18 03:46:00,56.4,51.9,29.97,ESE,106,0.0,0.0,85,0.00,,,0.00,0,WeatherTracker,2013-07-18 10:46:00,
2013-07-18 03:51:00,56.4,51.9,29.98,ESE,106,0.0,0.0,85,0.00,,,0.00,0,WeatherTracker,2013-07-18 10:51:00,
2013-07-18 03:56:00,56.5,52.0,29.98,ESE,105,0.0,0.0,85,0.00,,,0.00,0,WeatherTracker,2013-07-18 10:56:00,
2013-07-18 04:01:00,56.6,52.1,29.98,ESE,104,0.0,0.0,85,0.00,,,0.00,0,WeatherTracker,2013-07-18 11:01:00,
2013-07-18 04:06:00,56.5,52.0,29.98,ESE,104,0.0,0.0,85,0.00,,,0.00,0,WeatherTracker,2013-07-18 11:06:00,
2013-07-18 04:11:00,56.4,51.9,29.98,ESE,104,0.0,0.0,85,0.00,,,0.00,0,WeatherTracker,2013-07-18 11:11:00,
2013-07-18 04:17:00,56.3,51.8,29.98,ESE,104,0.0,0.0,85,0.00,,,0.00,0,WeatherTracker,2013-07-18 11:17:00,
2013-07-18 04:22:00,56.3,51.8,29.98,ESE,104,0.0,0.0,85,0.00,,,0.00,0,WeatherTracker,2013-07-18 11:22:00,
2013-07-18 04:27:00,56.2,51.7,29.98,ESE,104,0.0,0.0,85,0.00,,,0.00,0,WeatherTracker,2013-07-18 11:27:00,
2013-07-18 04:32:00,56.1,51.7,29.98,ESE,104,0.0,0.0,85,0.00,,,0.00,0,WeatherTracker,2013-07-18 11:32:00,
2013-07-18 04:37:00,55.9,51.5,29.98,ESE,104,0.0,0.0,85,0.00,,,0.00,0,WeatherTracker,2013-07-18 11:37:00,
2013-07-18 04:42:00,55.8,51.7,29.98,ESE,104,0.0,0.0,86,0.00,,,0.00,0,WeatherTracker,2013-07-18 11:42:00,
2013-07-18 04:47:00,55.7,51.3,29.98,ESE,104,0.0,0.0,85,0.00,,,0.00,0,WeatherTracker,2013-07-18 11:47:00,
2013-07-18 04:52:00,55.6,51.5,29.98,ESE,104,0.0,0.0,86,0.00,,,0.00,0,WeatherTracker,2013-07-18 11:52:00,
2013-07-18 04:57:00,55.5,51.4,29.98,ESE,104,0.0,0.0,86,0.00,,,0.00,0,WeatherTracker,2013-07-18 11:57:00,
2013-07-18 05:02:00,55.5,51.4,29.98,ESE,104,0.0,0.0,86,0.00,,,0.00,0,WeatherTracker,2013-07-18 12:02:00,
2013-07-18 05:07:00,55.4,51.3,29.98,ESE,104,0.0,0.0,86,0.00,,,0.00,0,WeatherTracker,2013-07-18 12:07:00,
2013-07-18 05:12:00,55.4,51.3,29.98,ESE,104,0.0,0.0,86,0.00,,,0.00,0,WeatherTracker,2013-07-18 12:12:00,
2013-07-18 05:17:00,55.4,51.3,29.99,ESE,104,0.0,0.0,86,0.00,,,0.00,0,WeatherTracker,2013-07-18 12:17:00,
2013-07-18 05:22:00,55.3,51.2,29.98,ESE,104,0.0,0.0,86,0.00,,,0.00,0,WeatherTracker,2013-07-18 12:22:00,
2013-07-18 05:27:00,55.3,51.2,29.99,ESE,104,0.0,0.0,86,0.00,,,0.00,0,WeatherTracker,2013-07-18 12:27:00,
2013-07-18 05:32:00,55.2,51.1,29.99,ESE,104,0.0,0.0,86,0.00,,,0.00,0,WeatherTracker,2013-07-18 12:32:00,
2013-07-18 05:37:00,55.2,51.1,29.99,ESE,104,0.0,0.0,86,0.00,,,0.00,0,WeatherTracker,2013-07-18 12:37:00,
2013-07-18 05:42:00,55.3,51.5,29.99,ESE,104,0.0,0.0,87,0.00,,,0.00,0,WeatherTracker,2013-07-18 12:42:00,
2013-07-18 05:47:00,55.3,51.2,29.99,ESE,104,0.0,0.0,86,0.00,,,0.00,0,WeatherTracker,2013-07-18 12:47:00,
2013-07-18 05:52:00,55.3,51.5,29.99,ESE,104,0.0,0.0,87,0.00,,,0.00,0,WeatherTracker,2013-07-18 12:52:00,
2013-07-18 05:57:00,55.3,51.5,29.99,ESE,104,0.0,0.0,87,0.00,,,0.00,5,WeatherTracker,2013-07-18 12:57:00,
2013-07-18 06:02:00,55.3,51.2,29.99,ENE,60,0.0,0.0,86,0.00,,,0.00,7,WeatherTracker,2013-07-18 13:02:00,
2013-07-18 06:07:00,55.5,51.7,29.99,ENE,65,0.0,0.0,87,0.00,,,0.00,9,WeatherTracker,2013-07-18 13:07:00,
2013-07-18 06:13:00,55.6,51.8,30.00,ENE,65,0.0,0.0,87,0.00,,,0.00,11,WeatherTracker,2013-07-18 13:13:00,
2013-07-18 06:18:00,55.7,51.9,30.00,ENE,64,0.0,0.0,87,0.00,,,0.00,12,WeatherTracker,2013-07-18 13:18:00,
2013-07-18 06:23:00,55.9,51.8,30.00,ENE,65,0.0,0.0,86,0.00,,,0.00,14,WeatherTracker,2013-07-18 13:23:00,
2013-07-18 06:28:00,56.0,51.9,30.00,ENE,65,0.0,0.0,86,0.00,,,0.00,18,WeatherTracker,2013-07-18 13:28:00,
2013-07-18 06:33:00,56.1,52.0,30.00,ENE,65,0.0,0.0,86,0.00,,,0.00,19,WeatherTracker,2013-07-18 13:33:00,
2013-07-18 06:38:00,56.3,52.2,30.00,ENE,61,0.0,0.0,86,0.00,,,0.00,23,WeatherTracker,2013-07-18 13:38:00,
2013-07-18 06:43:00,56.6,52.5,30.00,NW,304,0.0,0.0,86,0.00,,,0.00,37,WeatherTracker,2013-07-18 13:43:00,
2013-07-18 06:48:00,57.0,52.9,30.00,NW,311,2.0,0.0,86,0.00,,,0.00,95,WeatherTracker,2013-07-18 13:48:00,
2013-07-18 06:53:00,57.3,53.1,30.00,NW,310,0.0,5.0,86,0.00,,,0.00,111,WeatherTracker,2013-07-18 13:53:00,
2013-07-18 06:58:00,57.6,53.4,30.00,NE,37,0.0,5.0,86,0.00,,,0.00,128,WeatherTracker,2013-07-18 13:58:00,
2013-07-18 07:03:00,58.2,53.7,30.00,NE,35,0.0,0.0,85,0.00,,,0.00,148,WeatherTracker,2013-07-18 14:03:00,
2013-07-18 07:08:00,59.0,54.5,30.01,NE,34,0.0,4.0,85,0.00,,,0.00,163,WeatherTracker,2013-07-18 14:08:00,
2013-07-18 07:13:00,59.5,54.7,30.00,NE,34,0.0,4.0,84,0.00,,,0.00,183,WeatherTracker,2013-07-18 14:13:00,
2013-07-18 07:18:00,60.4,55.2,30.00,ENE,70,0.0,0.0,83,0.00,,,0.00,206,WeatherTracker,2013-07-18 14:18:00,
2013-07-18 07:23:00,60.9,55.0,30.01,ENE,67,0.0,0.0,81,0.00,,,0.00,223,WeatherTracker,2013-07-18 14:23:00,
2013-07-18 07:28:00,61.3,55.1,30.01,ENE,62,0.0,3.0,80,0.00,,,0.00,239,WeatherTracker,2013-07-18 14:28:00,
2013-07-18 07:33:00,61.8,55.2,30.01,ENE,61,0.0,3.0,79,0.00,,,0.00,253,WeatherTracker,2013-07-18 14:33:00,
2013-07-18 07:38:00,62.1,55.2,30.01,NE,47,0.0,0.0,78,0.00,,,0.00,271,WeatherTracker,2013-07-18 14:38:00,
2013-07-18 07:43:00,62.4,55.1,30.01,NNE,25,1.0,3.0,77,0.00,,,0.00,278,WeatherTracker,2013-07-18 14:43:00,
2013-07-18 07:48:00,62.7,55.4,30.01,NNE,25,0.0,4.0,77,0.00,,,0.00,213,WeatherTracker,2013-07-18 14:48:00,
2013-07-18 07:53:00,63.1,55.4,30.01,NNE,25,0.0,4.0,76,0.00,,,0.00,306,WeatherTracker,2013-07-18 14:53:00,
2013-07-18 07:58:00,63.7,55.6,30.02,NNE,25,0.0,1.0,75,0.00,,,0.00,323,WeatherTracker,2013-07-18 14:58:00,
2013-07-18 08:03:00,64.4,56.3,30.02,NE,34,0.0,1.0,75,0.00,,,0.00,352,WeatherTracker,2013-07-18 15:03:00,
2013-07-18 08:08:00,64.9,56.0,30.01,West,261,0.0,3.0,73,0.00,,,0.00,367,WeatherTracker,2013-07-18 15:08:00,
2013-07-18 08:13:00,65.3,56.0,30.02,NW,310,0.0,3.0,72,0.00,,,0.00,385,WeatherTracker,2013-07-18 15:13:00,
2013-07-18 08:18:00,65.6,55.9,30.02,NW,311,0.0,0.0,71,0.00,,,0.00,380,WeatherTracker,2013-07-18 15:18:00,
2013-07-18 08:23:00,66.0,55.9,30.02,NW,311,0.0,0.0,70,0.00,,,0.00,76,WeatherTracker,2013-07-18 15:23:00,
2013-07-18 08:29:00,66.7,56.2,30.02,NW,315,0.0,0.0,69,0.00,,,0.00,47,WeatherTracker,2013-07-18 15:29:00,
2013-07-18 08:34:00,66.8,56.3,30.02,NW,315,0.0,2.0,69,0.00,,,0.00,47,WeatherTracker,2013-07-18 15:34:00,
2013-07-18 08:39:00,67.3,56.4,30.02,NW,315,0.0,2.0,68,0.00,,,0.00,100,WeatherTracker,2013-07-18 15:39:00,
2013-07-18 08:44:00,67.6,56.2,30.02,NW,315,0.0,0.0,67,0.00,,,0.00,446,WeatherTracker,2013-07-18 15:44:00,
2013-07-18 08:49:00,67.5,56.6,30.02,NW,318,0.0,0.0,68,0.00,,,0.00,496,WeatherTracker,2013-07-18 15:49:00,
2013-07-18 08:54:00,68.1,57.1,30.02,NW,319,0.0,3.0,68,0.00,,,0.00,512,WeatherTracker,2013-07-18 15:54:00,
2013-07-18 08:59:00,69.1,57.3,30.02,NW,319,0.0,3.0,66,0.00,,,0.00,527,WeatherTracker,2013-07-18 15:59:00,
2013-07-18 09:04:00,69.5,57.2,30.02,SW,231,0.0,2.0,65,0.00,,,0.00,543,WeatherTracker,2013-07-18 16:04:00,
2013-07-18 09:09:00,69.2,57.3,30.02,SW,227,0.0,2.0,66,0.00,,,0.00,561,WeatherTracker,2013-07-18 16:09:00,
2013-07-18 09:14:00,69.7,57.8,30.02,SW,227,0.0,0.0,66,0.00,,,0.00,575,WeatherTracker,2013-07-18 16:14:00,
2013-07-18 09:19:00,70.5,57.7,30.02,SW,227,0.0,0.0,64,0.00,,,0.00,592,WeatherTracker,2013-07-18 16:19:00,
2013-07-18 09:24:00,70.4,57.2,30.02,SW,229,0.0,0.0,63,0.00,,,0.00,608,WeatherTracker,2013-07-18 16:24:00,
2013-07-18 09:29:00,70.8,57.6,30.01,SW,229,0.0,1.0,63,0.00,,,0.00,624,WeatherTracker,2013-07-18 16:29:00,
2013-07-18 09:34:00,71.4,57.7,30.01,SW,229,0.0,1.0,62,0.00,,,0.00,638,WeatherTracker,2013-07-18 16:34:00,
2013-07-18 09:39:00,71.8,58.1,30.01,ESE,103,0.0,0.0,62,0.00,,,0.00,652,WeatherTracker,2013-07-18 16:39:00,
2013-07-18 09:44:00,72.2,58.4,30.01,East,86,0.0,0.0,62,0.00,,,0.00,664,WeatherTracker,2013-07-18 16:44:00,
2013-07-18 09:49:00,73.1,60.2,30.01,East,84,0.0,0.0,64,0.00,,,0.00,677,WeatherTracker,2013-07-18 16:49:00,
2013-07-18 09:54:00,73.9,58.7,30.01,East,87,0.0,0.0,59,0.00,,,0.00,693,WeatherTracker,2013-07-18 16:54:00,
2013-07-18 09:59:00,74.4,59.1,30.01,East,88,3.0,3.0,59,0.00,,,0.00,703,WeatherTracker,2013-07-18 16:59:00,
2013-07-18 10:04:00,74.8,59.5,30.01,East,88,0.0,3.0,59,0.00,,,0.00,717,WeatherTracker,2013-07-18 17:04:00,
2013-07-18 10:09:00,75.4,59.6,30.01,East,88,0.0,3.0,58,0.00,,,0.00,729,WeatherTracker,2013-07-18 17:09:00,
2013-07-18 10:14:00,75.7,59.4,30.01,East,88,0.0,3.0,57,0.00,,,0.00,742,WeatherTracker,2013-07-18 17:14:00,
2013-07-18 10:19:00,76.4,59.5,30.01,East,88,0.0,3.0,56,0.00,,,0.00,754,WeatherTracker,2013-07-18 17:19:00,
2013-07-18 10:25:00,76.6,59.7,30.01,East,88,0.0,3.0,56,0.00,,,0.00,765,WeatherTracker,2013-07-18 17:25:00,
2013-07-18 10:30:00,77.0,59.6,30.01,East,88,0.0,3.0,55,0.00,,,0.00,779,WeatherTracker,2013-07-18 17:30:00,
2013-07-18 10:35:00,77.5,59.0,30.01,East,80,3.0,4.0,53,0.00,,,0.00,789,WeatherTracker,2013-07-18 17:35:00,
2013-07-18 10:40:00,77.8,59.3,30.00,East,80,0.0,4.0,53,0.00,,,0.00,802,WeatherTracker,2013-07-18 17:40:00,
2013-07-18 10:45:00,78.2,60.2,30.00,East,80,0.0,4.0,54,0.00,,,0.00,814,WeatherTracker,2013-07-18 17:45:00,
2013-07-18 10:50:00,78.9,59.2,30.00,East,79,3.0,3.0,51,0.00,,,0.00,824,WeatherTracker,2013-07-18 17:50:00,
2013-07-18 10:55:00,79.4,59.7,30.00,East,79,0.0,3.0,51,0.00,,,0.00,837,WeatherTracker,2013-07-18 17:55:00,
2013-07-18 11:00:00,80.0,60.2,30.00,East,81,1.0,4.0,51,0.00,,,0.00,846,WeatherTracker,2013-07-18 18:00:00,
2013-07-18 11:05:00,80.2,59.8,30.00,East,81,0.0,4.0,50,0.00,,,0.00,854,WeatherTracker,2013-07-18 18:05:00,
2013-07-18 11:10:00,80.9,60.5,30.00,East,88,1.0,5.0,50,0.00,,,0.00,861,WeatherTracker,2013-07-18 18:10:00,
2013-07-18 11:15:00,81.2,60.2,30.00,ESE,109,0.0,7.0,49,0.00,,,0.00,874,WeatherTracker,2013-07-18 18:15:00,
2013-07-18 11:20:00,81.7,61.8,30.00,ESE,117,1.0,7.0,51,0.00,,,0.00,882,WeatherTracker,2013-07-18 18:20:00,
2013-07-18 11:25:00,82.2,61.1,30.00,SE,128,5.0,7.0,49,0.00,,,0.00,888,WeatherTracker,2013-07-18 18:25:00,
2013-07-18 11:30:00,82.7,60.4,29.99,East,84,0.0,7.0,47,0.00,,,0.00,900,WeatherTracker,2013-07-18 18:30:00,
2013-07-18 11:36:00,83.1,60.1,29.99,East,84,0.0,5.0,46,0.00,,,0.00,902,WeatherTracker,2013-07-18 18:36:00,
2013-07-18 11:41:00,83.6,61.2,29.99,NE,36,0.0,4.0,47,0.00,,,0.00,914,WeatherTracker,2013-07-18 18:41:00,
2013-07-18 11:46:00,83.7,59.4,29.99,SE,128,0.0,7.0,44,0.00,,,0.00,919,WeatherTracker,2013-07-18 18:46:00,
2013-07-18 11:51:00,84.0,61.0,29.99,SW,227,1.0,7.0,46,0.00,,,0.00,925,WeatherTracker,2013-07-18 18:51:00,
2013-07-18 11:56:00,84.4,60.1,29.99,SW,225,1.0,5.0,44,0.00,,,0.00,933,WeatherTracker,2013-07-18 18:56:00,
2013-07-18 12:01:00,84.8,57.1,29.99,SW,222,3.0,5.0,39,0.00,,,0.00,935,WeatherTracker,2013-07-18 19:01:00,
2013-07-18 12:06:00,84.9,57.1,29.99,SW,215,2.0,4.0,39,0.00,,,0.00,940,WeatherTracker,2013-07-18 19:06:00,
2013-07-18 12:11:00,85.2,58.8,29.98,SW,215,2.0,4.0,41,0.00,,,0.00,946,WeatherTracker,2013-07-18 19:11:00,
2013-07-18 12:16:00,85.5,58.4,29.98,South,174,0.0,5.0,40,0.00,,,0.00,953,WeatherTracker,2013-07-18 19:16:00,
2013-07-18 12:21:00,85.4,59.7,29.98,South,174,0.0,5.0,42,0.00,,,0.00,958,WeatherTracker,2013-07-18 19:21:00,
2013-07-18 12:26:00,86.0,60.2,29.98,South,174,4.0,4.0,42,0.00,,,0.00,960,WeatherTracker,2013-07-18 19:26:00,
2013-07-18 12:31:00,86.3,60.5,29.98,South,173,0.0,5.0,42,0.00,,,0.00,965,WeatherTracker,2013-07-18 19:31:00,
2013-07-18 12:36:00,86.7,60.1,29.98,South,173,0.0,5.0,41,0.00,,,0.00,967,WeatherTracker,2013-07-18 19:36:00,
2013-07-18 12:41:00,87.1,60.5,29.97,South,176,1.0,4.0,41,0.00,,,0.00,970,WeatherTracker,2013-07-18 19:41:00,
2013-07-18 12:46:00,87.4,60.1,29.97,South,186,0.0,5.0,40,0.00,,,0.00,970,WeatherTracker,2013-07-18 19:46:00,
2013-07-18 12:51:00,87.8,60.4,29.97,South,185,0.0,5.0,40,0.00,,,0.00,972,WeatherTracker,2013-07-18 19:51:00,
2013-07-18 12:56:00,88.2,61.5,29.97,South,188,0.0,5.0,41,0.00,,,0.00,974,WeatherTracker,2013-07-18 19:56:00,
2013-07-18 13:01:00,88.8,62.0,29.97,South,187,0.0,5.0,41,0.00,,,0.00,972,WeatherTracker,2013-07-18 20:01:00,
2013-07-18 13:06:00,89.1,60.9,29.96,South,187,0.0,1.0,39,0.00,,,0.00,976,WeatherTracker,2013-07-18 20:06:00,
2013-07-18 13:11:00,89.6,62.0,29.96,SSW,201,4.0,6.0,40,0.00,,,0.00,972,WeatherTracker,2013-07-18 20:11:00,
2013-07-18 13:16:00,89.8,60.8,29.96,SSW,202,0.0,6.0,38,0.00,,,0.00,974,WeatherTracker,2013-07-18 20:16:00,
2013-07-18 13:22:00,89.8,61.5,29.96,SSW,202,3.0,5.0,39,0.00,,,0.00,974,WeatherTracker,2013-07-18 20:22:00,
2013-07-18 13:27:00,89.9,61.6,29.96,SSW,198,0.0,6.0,39,0.00,,,0.00,974,WeatherTracker,2013-07-18 20:27:00,
2013-07-18 13:32:00,90.1,61.8,29.96,SSW,194,3.0,6.0,39,0.00,,,0.00,970,WeatherTracker,2013-07-18 20:32:00,
2013-07-18 13:37:00,90.7,62.3,29.96,SSE,161,0.0,5.0,39,0.00,,,0.00,969,WeatherTracker,2013-07-18 20:37:00,
2013-07-18 13:42:00,90.7,60.0,29.95,SSE,162,0.0,7.0,36,0.00,,,0.00,967,WeatherTracker,2013-07-18 20:42:00,
2013-07-18 13:47:00,90.9,61.7,29.95,SSE,163,0.0,7.0,38,0.00,,,0.00,965,WeatherTracker,2013-07-18 20:47:00,
2013-07-18 13:52:00,91.5,60.7,29.95,South,172,2.0,6.0,36,0.00,,,0.00,963,WeatherTracker,2013-07-18 20:52:00,
2013-07-18 13:57:00,91.9,61.9,29.95,SSE,166,2.0,8.0,37,0.00,,,0.00,958,WeatherTracker,2013-07-18 20:57:00,
2013-07-18 14:02:00,92.2,61.3,29.95,South,172,0.0,8.0,36,0.00,,,0.00,956,WeatherTracker,2013-07-18 21:02:00,
2013-07-18 14:07:00,92.1,62.0,29.95,South,170,2.0,7.0,37,0.00,,,0.00,951,WeatherTracker,2013-07-18 21:07:00,
2013-07-18 14:12:00,92.6,61.7,29.95,South,176,1.0,7.0,36,0.00,,,0.00,947,WeatherTracker,2013-07-18 21:12:00,
2013-07-18 14:17:00,92.9,62.7,29.94,SSW,206,0.0,8.0,37,0.00,,,0.00,946,WeatherTracker,2013-07-18 21:17:00,
2013-07-18 14:22:00,92.9,60.3,29.94,SSW,207,7.0,8.0,34,0.00,,,0.00,935,WeatherTracker,2013-07-18 21:22:00,
2013-07-18 14:27:00,92.8,60.3,29.94,South,182,3.0,7.0,34,0.00,,,0.00,928,WeatherTracker,2013-07-18 21:27:00,
2013-07-18 14:32:00,92.9,60.3,29.94,South,182,0.0,7.0,34,0.00,,,0.00,923,WeatherTracker,2013-07-18 21:32:00,
2013-07-18 14:37:00,93.2,59.8,29.93,South,187,5.0,7.0,33,0.00,,,0.00,914,WeatherTracker,2013-07-18 21:37:00,
2013-07-18 14:42:00,93.3,60.7,29.93,South,190,0.0,7.0,34,0.00,,,0.00,911,WeatherTracker,2013-07-18 21:42:00,
2013-07-18 14:47:00,93.6,61.8,29.93,South,188,0.0,7.0,35,0.00,,,0.00,902,WeatherTracker,2013-07-18 21:47:00,
2013-07-18 14:52:00,94.0,59.6,29.93,South,187,0.0,5.0,32,0.00,,,0.00,896,WeatherTracker,2013-07-18 21:52:00,
2013-07-18 14:57:00,94.0,56.8,29.93,South,187,0.0,7.0,29,0.00,,,0.00,888,WeatherTracker,2013-07-18 21:57:00,
2013-07-18 15:02:00,94.3,59.0,29.92,SSW,192,6.0,7.0,31,0.00,,,0.00,877,WeatherTracker,2013-07-18 22:02:00,
2013-07-18 15:07:00,94.2,58.9,29.92,SSW,192,0.0,8.0,31,0.00,,,0.00,867,WeatherTracker,2013-07-18 22:07:00,
2013-07-18 15:12:00,94.9,58.6,29.92,SSW,194,3.0,8.0,30,0.00,,,0.00,856,WeatherTracker,2013-07-18 22:12:00,
2013-07-18 15:17:00,95.3,58.9,29.92,SSW,194,6.0,8.0,30,0.00,,,0.00,847,WeatherTracker,2013-07-18 22:17:00,
2013-07-18 15:22:00,95.3,58.0,29.92,South,182,3.0,8.0,29,0.00,,,0.00,837,WeatherTracker,2013-07-18 22:22:00,
2013-07-18 15:28:00,94.7,60.2,29.91,SSE,150,4.0,8.0,32,0.00,,,0.00,826,WeatherTracker,2013-07-18 22:28:00,
2013-07-18 15:33:00,94.8,58.5,29.91,SE,137,0.0,9.0,30,0.00,,,0.00,809,WeatherTracker,2013-07-18 22:33:00,
2013-07-18 15:38:00,95.0,58.6,29.91,SSE,153,0.0,9.0,30,0.00,,,0.00,795,WeatherTracker,2013-07-18 22:38:00,
2013-07-18 15:43:00,95.3,59.8,29.91,SE,126,4.0,7.0,31,0.00,,,0.00,788,WeatherTracker,2013-07-18 22:43:00,
2013-07-18 15:48:00,95.6,59.2,29.90,ESE,123,0.0,8.0,30,0.00,,,0.00,775,WeatherTracker,2013-07-18 22:48:00,
2013-07-18 15:53:00,95.8,62.9,29.90,SE,133,5.0,11.0,34,0.00,,,0.00,759,WeatherTracker,2013-07-18 22:53:00,
2013-07-18 15:58:00,95.8,62.0,29.90,SE,137,2.0,11.0,33,0.00,,,0.00,747,WeatherTracker,2013-07-18 22:58:00,
2013-07-18 16:03:00,95.2,61.5,29.90,South,174,4.0,11.0,33,0.00,,,0.00,733,WeatherTracker,2013-07-18 23:03:00,
2013-07-18 16:08:00,95.0,61.3,29.90,SSW,198,5.0,10.0,33,0.00,,,0.00,721,WeatherTracker,2013-07-18 23:08:00,
2013-07-18 16:13:00,95.3,61.6,29.90,South,170,11.0,11.0,33,0.00,,,0.00,712,WeatherTracker,2013-07-18 23:13:00,
2013-07-18 16:18:00,95.4,61.7,29.90,SSW,194,7.0,13.0,33,0.00,,,0.00,701,WeatherTracker,2013-07-18 23:18:00,
2013-07-18 16:23:00,95.3,61.6,29.89,South,183,0.0,13.0,33,0.00,,,0.00,689,WeatherTracker,2013-07-18 23:23:00,
2013-07-18 16:28:00,95.5,60.9,29.89,South,182,0.0,8.0,32,0.00,,,0.00,673,WeatherTracker,2013-07-18 23:28:00,
2013-07-18 16:33:00,95.5,60.0,29.89,SSE,159,8.0,8.0,31,0.00,,,0.00,663,WeatherTracker,2013-07-18 23:33:00,
2013-07-18 16:38:00,95.0,60.5,29.89,South,177,7.0,9.0,32,0.00,,,0.00,649,WeatherTracker,2013-07-18 23:38:00,
2013-07-18 16:43:00,95.0,60.5,29.89,SSE,152,0.0,9.0,32,0.00,,,0.00,635,WeatherTracker,2013-07-18 23:43:00,
2013-07-18 16:48:00,95.2,60.6,29.89,South,186,0.0,9.0,32,0.00,,,0.00,621,WeatherTracker,2013-07-18 23:48:00,
2013-07-18 16:53:00,95.6,61.0,29.88,South,184,5.0,9.0,32,0.00,,,0.00,606,WeatherTracker,2013-07-18 23:53:00,
2013-07-18 16:58:00,95.7,61.9,29.88,South,182,3.0,9.0,33,0.00,,,0.00,591,WeatherTracker,2013-07-18 23:58:00,
2013-07-18 17:03:00,95.4,60.8,29.88,South,181,4.0,8.0,32,0.00,,,0.00,577,WeatherTracker,2013-07-19 00:03:00,
2013-07-18 17:08:00,95.5,60.0,29.88,South,181,0.0,8.0,31,0.00,,,0.00,561,WeatherTracker,2013-07-19 00:08:00,
2013-07-18 17:13:00,95.5,58.1,29.88,South,169,1.0,8.0,29,0.00,,,0.00,548,WeatherTracker,2013-07-19 00:13:00,
2013-07-18 17:19:00,95.4,59.0,29.88,SSE,161,2.0,8.0,30,0.00,,,0.00,533,WeatherTracker,2013-07-19 00:19:00,
2013-07-18 17:24:00,95.7,59.2,29.88,SSE,166,0.0,8.0,30,0.00,,,0.00,517,WeatherTracker,2013-07-19 00:24:00,
2013-07-18 17:29:00,95.5,56.1,29.88,South,169,2.0,8.0,27,0.00,,,0.00,503,WeatherTracker,2013-07-19 00:29:00,
2013-07-18 17:34:00,95.3,58.0,29.87,SSE,167,8.0,10.0,29,0.00,,,0.00,489,WeatherTracker,2013-07-19 00:34:00,
2013-07-18 17:39:00,94.9,56.6,29.87,SSE,155,0.0,10.0,28,0.00,,,0.00,469,WeatherTracker,2013-07-19 00:39:00,
2013-07-18 17:44:00,94.7,59.3,29.87,SSE,157,7.0,9.0,31,0.00,,,0.00,454,WeatherTracker,2013-07-19 00:44:00,
2013-07-18 17:49:00,94.3,58.0,29.87,SSE,153,4.0,9.0,30,0.00,,,0.00,438,WeatherTracker,2013-07-19 00:49:00,
2013-07-18 17:54:00,93.8,57.6,29.87,South,182,7.0,8.0,30,0.00,,,0.00,424,WeatherTracker,2013-07-19 00:54:00,
2013-07-18 17:59:00,93.4,57.3,29.87,SSE,153,5.0,10.0,30,0.00,,,0.00,406,WeatherTracker,2013-07-19 00:59:00,
2013-07-18 18:04:00,93.1,55.1,29.86,South,171,2.0,10.0,28,0.00,,,0.00,392,WeatherTracker,2013-07-19 01:04:00,
2013-07-18 18:09:00,93.3,55.3,29.86,South,171,6.0,10.0,28,0.00,,,0.00,378,WeatherTracker,2013-07-19 01:09:00,
2013-07-18 18:14:00,93.4,55.4,29.86,SSE,164,0.0,10.0,28,0.00,,,0.00,362,WeatherTracker,2013-07-19 01:14:00,
2013-07-18 18:19:00,93.3,54.3,29.86,South,174,8.0,9.0,27,0.00,,,0.00,346,WeatherTracker,2013-07-19 01:19:00,
2013-07-18 18:24:00,93.1,56.1,29.86,SE,145,7.0,9.0,29,0.00,,,0.00,330,WeatherTracker,2013-07-19 01:24:00,
2013-07-18 18:29:00,92.9,55.9,29.86,SSE,165,5.0,9.0,29,0.00,,,0.00,313,WeatherTracker,2013-07-19 01:29:00,
2013-07-18 18:34:00,92.8,54.9,29.86,South,169,0.0,9.0,28,0.00,,,0.00,297,WeatherTracker,2013-07-19 01:34:00,
2013-07-18 18:39:00,92.9,54.9,29.86,SSE,158,4.0,8.0,28,0.00,,,0.00,281,WeatherTracker,2013-07-19 01:39:00,
2013-07-18 18:44:00,92.8,55.8,29.86,SSE,160,0.0,8.0,29,0.00,,,0.00,265,WeatherTracker,2013-07-19 01:44:00,
2013-07-18 18:49:00,92.8,54.9,29.86,SSE,163,4.0,7.0,28,0.00,,,0.00,244,WeatherTracker,2013-07-19 01:49:00,
2013-07-18 18:54:00,92.5,54.6,29.86,SSE,166,2.0,7.0,28,0.00,,,0.00,223,WeatherTracker,2013-07-19 01:54:00,
2013-07-18 18:59:00,92.0,57.0,29.86,SSE,163,0.0,8.0,31,0.00,,,0.00,202,WeatherTracker,2013-07-19 01:59:00,
2013-07-18 19:04:00,91.2,57.2,29.86,SSE,160,4.0,8.0,32,0.00,,,0.00,181,WeatherTracker,2013-07-19 02:04:00,
2013-07-18 19:09:00,90.5,57.4,29.86,ESE,108,0.0,8.0,33,0.00,,,0.00,160,WeatherTracker,2013-07-19 02:09:00,
2013-07-18 19:14:00,90.4,56.5,29.86,ESE,115,0.0,8.0,32,0.00,,,0.00,142,WeatherTracker,2013-07-19 02:14:00,
2013-07-18 19:19:00,90.3,56.4,29.86,SSE,158,6.0,6.0,32,0.00,,,0.00,123,WeatherTracker,2013-07-19 02:19:00,
2013-07-18 19:24:00,89.7,55.9,29.86,South,169,4.0,9.0,32,0.00,,,0.00,105,WeatherTracker,2013-07-19 02:24:00,
2013-07-18 19:30:00,89.0,56.1,29.86,SSE,165,6.0,9.0,33,0.00,,,0.00,91,WeatherTracker,2013-07-19 02:30:00,
2013-07-18 19:35:00,88.4,57.2,29.86,SSE,165,0.0,9.0,35,0.00,,,0.00,72,WeatherTracker,2013-07-19 02:35:00,
2013-07-18 19:40:00,88.2,57.1,29.86,SSE,165,0.0,6.0,35,0.00,,,0.00,58,WeatherTracker,2013-07-19 02:40:00,
2013-07-18 19:45:00,87.9,57.6,29.86,SSE,166,4.0,4.0,36,0.00,,,0.00,46,WeatherTracker,2013-07-19 02:45:00,
2013-07-18 19:50:00,87.5,58.0,29.86,SSE,167,0.0,6.0,37,0.00,,,0.00,35,WeatherTracker,2013-07-19 02:50:00,
2013-07-18 19:55:00,87.1,59.1,29.85,SSE,166,0.0,6.0,39,0.00,,,0.00,23,WeatherTracker,2013-07-19 02:55:00,
2013-07-18 20:00:00,86.4,59.2,29.86,SE,143,0.0,4.0,40,0.00,,,0.00,19,WeatherTracker,2013-07-19 03:00:00,
2013-07-18 20:05:00,85.7,59.3,29.86,SE,144,0.0,4.0,41,0.00,,,0.00,16,WeatherTracker,2013-07-19 03:05:00,
2013-07-18 20:10:00,85.3,60.2,29.86,SE,144,0.0,1.0,43,0.00,,,0.00,14,WeatherTracker,2013-07-19 03:10:00,
2013-07-18 20:15:00,84.7,60.3,29.86,SE,144,0.0,0.0,44,0.00,,,0.00,11,WeatherTracker,2013-07-19 03:15:00,
2013-07-18 20:20:00,84.2,59.9,29.86,SE,144,0.0,0.0,44,0.00,,,0.00,9,WeatherTracker,2013-07-19 03:20:00,
2013-07-18 20:25:00,83.6,60.0,29.86,SE,144,0.0,0.0,45,0.00,,,0.00,7,WeatherTracker,2013-07-19 03:25:00,
2013-07-18 20:31:00,83.0,60.1,29.86,SE,144,0.0,0.0,46,0.00,,,0.00,5,WeatherTracker,2013-07-19 03:31:00,
2013-07-18 20:36:00,82.4,60.1,29.86,SE,144,0.0,0.0,47,0.00,,,0.00,0,WeatherTracker,2013-07-19 03:36:00,
2013-07-18 20:41:00,82.1,59.8,29.85,SE,144,0.0,0.0,47,0.00,,,0.00,0,WeatherTracker,2013-07-19 03:41:00,
2013-07-18 20:46:00,81.6,60.0,29.86,SE,144,0.0,0.0,48,0.00,,,0.00,0,WeatherTracker,2013-07-19 03:46:00,
2013-07-18 20:51:00,81.1,60.1,29.86,SE,143,0.0,0.0,49,0.00,,,0.00,0,WeatherTracker,2013-07-19 03:51:00,
2013-07-18 20:56:00,80.7,60.3,29.86,SE,143,0.0,0.0,50,0.00,,,0.00,0,WeatherTracker,2013-07-19 03:56:00,
2013-07-18 21:01:00,80.3,59.9,29.86,SE,143,0.0,0.0,50,0.00,,,0.00,0,WeatherTracker,2013-07-19 04:01:00,
2013-07-18 21:02:00,80.2,59.8,29.86,SE,143,0.0,0.0,50,0.00,,,0.00,0,WeatherTracker,2013-07-19 04:02:00,
2013-07-18 21:07:00,79.6,59.9,29.86,SE,143,0.0,0.0,51,0.00,,,0.00,0,WeatherTracker,2013-07-19 04:07:00,
2013-07-18 21:12:00,79.2,60.0,29.86,SE,143,0.0,0.0,52,0.00,,,0.00,0,WeatherTracker,2013-07-19 04:12:00,
2013-07-18 21:17:00,78.7,59.6,29.86,SE,143,0.0,0.0,52,0.00,,,0.00,0,WeatherTracker,2013-07-19 04:17:00,
2013-07-18 21:22:00,78.2,59.1,29.86,SE,143,0.0,0.0,52,0.00,,,0.00,0,WeatherTracker,2013-07-19 04:22:00,
2013-07-18 21:27:00,77.7,59.2,29.86,SE,144,0.0,0.0,53,0.00,,,0.00,0,WeatherTracker,2013-07-19 04:27:00,
2013-07-18 21:32:00,77.3,58.8,29.86,SE,144,0.0,0.0,53,0.00,,,0.00,0,WeatherTracker,2013-07-19 04:32:00,
2013-07-18 21:37:00,76.9,59.0,29.86,SE,144,0.0,0.0,54,0.00,,,0.00,0,WeatherTracker,2013-07-19 04:37:00,
2013-07-18 21:42:00,76.5,58.6,29.86,SE,144,0.0,0.0,54,0.00,,,0.00,0,WeatherTracker,2013-07-19 04:42:00,
2013-07-18 21:47:00,76.1,58.7,29.86,SE,144,0.0,0.0,55,0.00,,,0.00,0,WeatherTracker,2013-07-19 04:47:00,
2013-07-18 21:52:00,75.6,58.8,29.86,SE,144,0.0,0.0,56,0.00,,,0.00,0,WeatherTracker,2013-07-19 04:52:00,
2013-07-18 21:57:00,75.3,58.5,29.86,SE,144,0.0,0.0,56,0.00,,,0.00,0,WeatherTracker,2013-07-19 04:57:00,
2013-07-18 22:02:00,75.0,59.2,29.86,SE,144,0.0,0.0,58,0.00,,,0.00,0,WeatherTracker,2013-07-19 05:02:00,
2013-07-18 22:07:00,74.6,58.8,29.86,SE,144,0.0,0.0,58,0.00,,,0.00,0,WeatherTracker,2013-07-19 05:07:00,
2013-07-18 22:12:00,74.4,58.6,29.86,SE,144,0.0,0.0,58,0.00,,,0.00,0,WeatherTracker,2013-07-19 05:12:00,
2013-07-18 22:18:00,74.2,58.5,29.86,SE,144,0.0,0.0,58,0.00,,,0.00,0,WeatherTracker,2013-07-19 05:18:00,
2013-07-18 22:23:00,73.9,58.2,29.86,SE,144,0.0,0.0,58,0.00,,,0.00,0,WeatherTracker,2013-07-19 05:23:00,
2013-07-18 22:28:00,73.7,58.5,29.86,SE,144,0.0,0.0,59,0.00,,,0.00,0,WeatherTracker,2013-07-19 05:28:00,
2013-07-18 22:33:00,73.4,58.2,29.86,SE,144,0.0,0.0,59,0.00,,,0.00,0,WeatherTracker,2013-07-19 05:33:00,
2013-07-18 22:38:00,73.2,58.0,29.87,SE,144,0.0,0.0,59,0.00,,,0.00,0,WeatherTracker,2013-07-19 05:38:00,
2013-07-18 22:43:00,73.1,57.9,29.86,SE,144,0.0,0.0,59,0.00,,,0.00,0,WeatherTracker,2013-07-19 05:43:00,
2013-07-18 22:48:00,72.9,57.7,29.86,SE,144,0.0,0.0,59,0.00,,,0.00,0,WeatherTracker,2013-07-19 05:48:00,
2013-07-18 22:53:00,72.6,57.4,29.86,SE,144,0.0,0.0,59,0.00,,,0.00,0,WeatherTracker,2013-07-19 05:53:00,
2013-07-18 22:58:00,72.1,57.4,29.87,SE,144,0.0,0.0,60,0.00,,,0.00,0,WeatherTracker,2013-07-19 05:58:00,
2013-07-18 23:03:00,71.7,57.1,29.87,SE,142,0.0,1.0,60,0.00,,,0.00,0,WeatherTracker,2013-07-19 06:03:00,
2013-07-18 23:08:00,71.1,56.5,29.87,SE,142,0.0,1.0,60,0.00,,,0.00,0,WeatherTracker,2013-07-19 06:08:00,
2013-07-18 23:13:00,70.5,56.8,29.87,SE,142,0.0,0.0,62,0.00,,,0.00,0,WeatherTracker,2013-07-19 06:13:00,
2013-07-18 23:18:00,70.0,56.4,29.87,SE,142,0.0,1.0,62,0.00,,,0.00,0,WeatherTracker,2013-07-19 06:18:00,
2013-07-18 23:23:00,69.5,55.9,29.87,SE,142,0.0,1.0,62,0.00,,,0.00,0,WeatherTracker,2013-07-19 06:23:00,
2013-07-18 23:28:00,69.0,55.9,29.86,SE,142,0.0,0.0,63,0.00,,,0.00,0,WeatherTracker,2013-07-19 06:28:00,
2013-07-18 23:33:00,68.5,55.8,29.86,SE,142,0.0,0.0,64,0.00,,,0.00,0,WeatherTracker,2013-07-19 06:33:00,
2013-07-18 23:38:00,68.0,55.8,29.86,SE,142,0.0,0.0,65,0.00,,,0.00,0,WeatherTracker,2013-07-19 06:38:00,
2013-07-18 23:43:00,67.7,55.9,29.86,SE,142,0.0,0.0,66,0.00,,,0.00,0,WeatherTracker,2013-07-19 06:43:00,
2013-07-18 23:48:00,67.4,55.6,29.86,SE,142,0.0,0.0,66,0.00,,,0.00,0,WeatherTracker,2013-07-19 06:48:00,
2013-07-18 23:53:00,67.2,55.9,29.86,SE,142,0.0,0.0,67,0.00,,,0.00,0,WeatherTracker,2013-07-19 06:53:00,
2013-07-18 23:58:00,67.1,55.8,29.87,SE,142,0.0,0.0,67,0.00,,,0.00,0,WeatherTracker,2013-07-19 06:58:00,